Flag for Puerto Rico Weather past 2 weeks in San Juan, Puerto Rico

Now
80 °F

Passing clouds.


Feels Like: 85 °F
Forecast: 82 / 89 °F
Wind: 14 mph from East

Location: Luis Munoz Marin

Current Time: Jul 3, 2015 at 4:15:11 AM

Latest Report: Jul 3, 2015 at 3:56 AM


Visibility: 10 mi

Pressure: 30.05 "Hg

Humidity: 81%

Dew point: 74 °F

Location of San JuanLocation

Historic Weather in San Juan — Graph

°F

San Juan temperature yesterday

Maximum temperature yesterday: 89 °F (at 12:56 PM)
Minimum temperature yesterday: 79 °F (at 1:56 AM)
Average temperature yesterday: 83 °F

Past Weeks' High & Low Weather Summary

 TemperatureHumidityPressure
High91 °F (Jun 19, 12:56 PM)97% (Jun 27, 4:56 AM)30.17 "Hg (Jun 27, 4:56 AM)
Low75 °F (Jun 22, 3:04 PM)52% (Jun 27, 1:56 PM)30.00 "Hg (Jun 19, 3:56 PM)
Average83 °F77%30.09 "Hg
* Reported Jun 18 2:56 AM — Jul 3 2:56 AM, San Juan, Weather by CustomWeather, © 2015

Note: Actual official high and low records may vary slightly from our data, if they occured in-between our weather recording intervals... More about our weather records

Advertising

San Juan weather history for previous 24 hours

 ConditionsComfort  
Time TempWeatherWind HumidityBarometerVisibility
2:56 AM
Fri, Jul 3
80 °FPassing clouds.9 mph85%30.05 "Hg10 mi
1:56 AM80 °FPassing clouds.7 mph85%30.06 "Hg10 mi
12:56 AM80 °FPassing clouds.10 mph81%30.07 "Hg10 mi
11:56 PM
Thu, Jul 2
81 °FPassing clouds.15 mph79%30.09 "Hg10 mi
10:56 PM81 °FPassing clouds.14 mph79%30.10 "Hg10 mi
9:56 PM81 °FPassing clouds.13 mph82%30.09 "Hg10 mi
8:56 PM82 °FPassing clouds.16 mph79%30.08 "Hg10 mi
7:56 PM82 °FScattered clouds.13 mph77%30.07 "Hg10 mi
6:56 PM83 °FScattered clouds.17 mph77%30.06 "Hg10 mi
5:56 PM84 °FPassing clouds.15 mph74%30.04 "Hg10 mi
4:56 PM85 °FScattered clouds.20 mph70%30.03 "Hg10 mi
3:56 PM87 °FScattered clouds.18 mph65%30.04 "Hg10 mi
2:56 PM87 °FScattered clouds.18 mph67%30.05 "Hg10 mi
1:56 PM88 °FPassing clouds.18 mph65%30.06 "Hg10 mi
12:56 PM89 °FScattered clouds.16 mph59%30.07 "Hg10 mi
11:56 AM87 °FScattered clouds.18 mph67%30.09 "Hg10 mi
10:56 AM85 °FScattered clouds.17 mph72%30.10 "Hg10 mi
9:56 AM85 °FBroken clouds.20 mph72%30.10 "Hg10 mi
8:56 AM84 °FScattered clouds.16 mph74%30.10 "Hg10 mi
7:56 AM82 °FBroken clouds.6 mph79%30.09 "Hg9 mi
6:56 AM80 °FBroken clouds.5 mph81%30.08 "Hg9 mi
5:56 AM80 °FPassing clouds.5 mph79%30.08 "Hg9 mi
4:56 AM80 °FPassing clouds.8 mph81%30.06 "Hg10 mi
Weather by CustomWeather, © 2015

See weather overviewHow to use our weather pages